| time (UTC) | temp C | wind direction | speed KPH | gust KPH | rain 1hr cm | rain 24hr cm | rain mn cm | humidity % | barometer mb |
| 20260503010055 | 11 | 0 | 0.0 | 0.0 | 0.00 | 1.19 | 1.19 | 93 | 1012.8 |
| 20260503005549 | 11 | 0 | 0.0 | 0.0 | 0.00 | 1.19 | 1.19 | 93 | 1012.7 |
| 20260503005047 | 11 | 0 | 0.0 | 0.0 | 0.00 | 1.19 | 1.19 | 93 | 1012.7 |
| 20260503004552 | 11 | 0 | 0.0 | 0.0 | 0.00 | 1.19 | 1.19 | 93 | 1012.5 |
| 20260503004047 | 11 | 0 | 0.0 | 0.0 | 0.00 | 1.19 | 1.19 | 93 | 1012.5 |
| 20260503003547 | 11 | 0 | 0.0 | 0.0 | 0.00 | 1.19 | 1.19 | 93 | 1012.4 |
| 20260503003104 | 11 | 0 | 0.0 | 0.0 | 0.00 | 1.19 | 1.19 | 93 | 1012.3 |
| 20260503002547 | 11 | 0 | 0.0 | 0.0 | 0.00 | 1.19 | 1.19 | 93 | 1012.3 |
| 20260503002047 | 11 | 0 | 0.0 | 0.0 | 0.00 | 1.19 | 1.19 | 93 | 1012.3 |
| 20260503001608 | 11 | 0 | 0.0 | 0.0 | 0.00 | 1.19 | 1.19 | 93 | 1012.2 |
| 20260503001050 | 11 | 0 | 0.0 | 0.0 | 0.00 | 1.19 | 1.19 | 93 | 1012.2 |
| 20260503000547 | 11 | 0 | 0.0 | 0.0 | 0.00 | 1.19 | 1.19 | 92 | 1012.3 |
| 20260503000112 | 11 | 0 | 0.0 | 0.0 | 0.00 | 1.19 | 1.19 | 92 | 1012.2 |
| 20260502235546 | 11 | 0 | 0.0 | 0.0 | 0.00 | 1.19 | 1.19 | 92 | 1012.1 |
| 20260502235046 | 11 | 0 | 0.0 | 0.0 | 0.00 | 1.19 | 1.19 | 92 | 1012.0 |
| 20260502234554 | 11 | 0 | 0.0 | 0.0 | 0.00 | 1.19 | 1.19 | 92 | 1012.0 |
| 20260502234047 | 11 | 0 | 0.0 | 0.0 | 0.00 | 1.19 | 1.19 | 92 | 1011.9 |
| 20260502233547 | 11 | 0 | 0.0 | 0.0 | 0.00 | 1.19 | 1.19 | 92 | 1011.9 |
| 20260502233056 | 11 | 0 | 0.0 | 0.0 | 0.00 | 1.19 | 1.19 | 92 | 1011.8 |
| 20260502232547 | 11 | 0 | 0.0 | 0.0 | 0.00 | 1.19 | 1.19 | 92 | 1011.8 |
| 20260502232047 | 11 | 0 | 0.0 | 0.0 | 0.00 | 1.19 | 1.19 | 92 | 1011.9 |
| 20260502231559 | 11 | 0 | 0.0 | 0.0 | 0.00 | 1.19 | 1.19 | 92 | 1011.8 |
| 20260502231048 | 11 | 0 | 0.0 | 0.0 | 0.00 | 1.19 | 1.19 | 92 | 1011.8 |
| 20260502230547 | 11 | 0 | 0.0 | 0.0 | 0.00 | 1.19 | 1.19 | 92 | 1011.8 |
| 20260502230055 | 11 | 0 | 0.0 | 0.0 | 0.00 | 1.19 | 1.19 | 91 | 1011.8 |
| 20260502225546 | 11 | 0 | 0.0 | 0.0 | 0.00 | 1.19 | 1.19 | 91 | 1011.8 |
| 20260502225047 | 11 | 0 | 0.0 | 0.0 | 0.00 | 1.19 | 1.19 | 91 | 1011.7 |
| 20260502224552 | 11 | 0 | 0.0 | 0.0 | 0.00 | 1.19 | 1.19 | 91 | 1011.7 |
| 20260502224047 | 11 | 0 | 0.0 | 0.0 | 0.00 | 1.19 | 1.19 | 91 | 1011.7 |
| 20260502223547 | 11 | 0 | 0.0 | 0.0 | 0.00 | 1.19 | 1.19 | 91 | 1011.6 |
| 20260502223055 | 11 | 0 | 0.0 | 0.0 | 0.00 | 1.19 | 1.19 | 91 | 1011.7 |
| 20260502222549 | 11 | 0 | 0.0 | 0.0 | 0.00 | 1.19 | 1.19 | 91 | 1011.6 |
| 20260502222050 | 11 | 0 | 0.0 | 0.0 | 0.00 | 1.19 | 1.19 | 91 | 1011.5 |
| 20260502221555 | 11 | 0 | 0.0 | 0.0 | 0.00 | 1.19 | 1.19 | 90 | 1011.6 |
| 20260502221045 | 12 | 0 | 0.0 | 0.0 | 0.00 | 1.19 | 1.19 | 90 | 1011.6 |
| 20260502220547 | 12 | 0 | 0.0 | 0.0 | 0.00 | 1.19 | 1.19 | 91 | 1011.6 |
| 20260502220050 | 12 | 0 | 0.0 | 0.0 | 0.00 | 1.19 | 1.19 | 91 | 1011.4 |
| 20260502215547 | 12 | 0 | 0.0 | 0.0 | 0.03 | 1.19 | 1.19 | 91 | 1011.4 |
| 20260502215046 | 12 | 0 | 0.0 | 0.0 | 0.03 | 1.19 | 1.19 | 91 | 1011.3 |
| 20260502214555 | 12 | 0 | 0.0 | 0.0 | 0.03 | 1.19 | 1.19 | 91 | 1011.4 |
| 20260502214046 | 11 | 0 | 0.0 | 0.0 | 0.03 | 1.19 | 1.19 | 91 | 1011.4 |
| 20260502213544 | 12 | 0 | 0.0 | 0.0 | 0.03 | 1.19 | 1.19 | 90 | 1011.4 |
| 20260502213052 | 12 | 0 | 0.0 | 0.0 | 0.03 | 1.19 | 1.19 | 91 | 1011.4 |
| 20260502212544 | 12 | 0 | 0.0 | 0.0 | 0.03 | 1.19 | 1.19 | 91 | 1011.4 |
| 20260502212046 | 12 | 0 | 0.0 | 0.0 | 0.03 | 1.19 | 1.19 | 91 | 1011.6 |
| 20260502211555 | 12 | 0 | 0.0 | 0.0 | 0.05 | 1.19 | 1.19 | 91 | 1011.5 |
| 20260502211051 | 12 | 0 | 0.0 | 0.0 | 0.05 | 1.19 | 1.19 | 91 | 1011.5 |
| 20260502210550 | 12 | 0 | 0.0 | 8.0 | 0.05 | 1.19 | 1.19 | 91 | 1011.5 |
| 20260502210051 | 12 | 0 | 0.0 | 8.0 | 0.05 | 1.19 | 1.19 | 92 | 1011.5 |
| 20260502205547 | 12 | 0 | 0.0 | 8.0 | 0.03 | 1.17 | 1.17 | 92 | 1011.5 |
| 20260502205047 | 12 | 0 | 0.0 | 0.0 | 0.03 | 1.17 | 1.17 | 92 | 1011.2 |
| 20260502204549 | 12 | 0 | 0.0 | 0.0 | 0.03 | 1.17 | 1.17 | 92 | 1011.3 |
| 20260502204046 | 12 | 0 | 0.0 | 0.0 | 0.03 | 1.17 | 1.17 | 92 | 1011.3 |
| 20260502203547 | 12 | 0 | 0.0 | 0.0 | 0.03 | 1.17 | 1.17 | 92 | 1011.5 |
| 20260502203048 | 12 | 0 | 0.0 | 0.0 | 0.03 | 1.17 | 1.17 | 92 | 1011.5 |
| 20260502202546 | 12 | 0 | 0.0 | 8.0 | 0.05 | 1.17 | 1.17 | 92 | 1011.5 |
| 20260502202046 | 12 | 0 | 0.0 | 8.0 | 0.05 | 1.17 | 1.17 | 92 | 1011.4 |
| 20260502201559 | 12 | 0 | 0.0 | 9.7 | 0.03 | 1.14 | 1.14 | 92 | 1011.5 |
| 20260502201047 | 12 | 0 | 0.0 | 9.7 | 0.03 | 1.14 | 1.14 | 92 | 1011.5 |
| 20260502200550 | 12 | 0 | 0.0 | 8.0 | 0.05 | 1.14 | 1.14 | 92 | 1011.4 |
| 20260502200059 | 12 | 0 | 0.0 | 0.0 | 0.05 | 1.14 | 1.14 | 92 | 1011.5 |
| 20260502195546 | 12 | 0 | 0.0 | 0.0 | 0.08 | 1.14 | 1.14 | 92 | 1011.6 |
| 20260502195045 | 12 | 0 | 0.0 | 0.0 | 0.08 | 1.14 | 1.14 | 93 | 1011.6 |
| 20260502194554 | 12 | 0 | 0.0 | 0.0 | 0.08 | 1.14 | 1.14 | 92 | 1011.6 |
| 20260502194050 | 12 | 0 | 0.0 | 0.0 | 0.08 | 1.14 | 1.14 | 93 | 1011.6 |
| 20260502193545 | 12 | 0 | 0.0 | 0.0 | 0.10 | 1.14 | 1.14 | 93 | 1011.6 |
| 20260502193053 | 12 | 0 | 0.0 | 0.0 | 0.10 | 1.14 | 1.14 | 93 | 1011.8 |
| 20260502192547 | 11 | 0 | 0.0 | 0.0 | 0.08 | 1.12 | 1.12 | 93 | 1011.9 |
| 20260502192046 | 11 | 0 | 0.0 | 9.7 | 0.10 | 1.12 | 1.12 | 93 | 1012.1 |
| 20260502191559 | 11 | 0 | 0.0 | 9.7 | 0.10 | 1.12 | 1.12 | 92 | 1012.1 |
| 20260502191051 | 11 | 0 | 0.0 | 9.7 | 0.10 | 1.12 | 1.12 | 92 | 1012.1 |
| 20260502190548 | 11 | 0 | 0.0 | 9.7 | 0.08 | 1.09 | 1.09 | 92 | 1012.0 |
| 20260502190050 | 11 | 0 | 0.0 | 0.0 | 0.10 | 1.09 | 1.09 | 92 | 1012.1 |
| 20260502185550 | 11 | 0 | 0.0 | 0.0 | 0.08 | 1.12 | 1.07 | 92 | 1012.1 |
| 20260502185047 | 12 | 0 | 0.0 | 0.0 | 0.08 | 1.12 | 1.07 | 92 | 1012.0 |
| 20260502184547 | 12 | 0 | 0.0 | 0.0 | 0.08 | 1.12 | 1.07 | 92 | 1012.0 |
| 20260502184047 | 12 | 0 | 0.0 | 8.0 | 0.08 | 1.12 | 1.07 | 92 | 1011.8 |
| 20260502183547 | 12 | 0 | 0.0 | 8.0 | 0.05 | 1.09 | 1.04 | 92 | 1012.0 |
| 20260502183047 | 12 | 0 | 0.0 | 0.0 | 0.05 | 1.09 | 1.04 | 92 | 1011.8 |
| 20260502182547 | 12 | 0 | 0.0 | 0.0 | 0.05 | 1.09 | 1.04 | 92 | 1012.0 |
| 20260502182043 | 12 | 0 | 0.0 | 0.0 | 0.03 | 1.07 | 1.02 | 93 | 1012.4 |
| 20260502181551 | 12 | 0 | 0.0 | 0.0 | 0.03 | 1.07 | 1.02 | 92 | 1012.2 |
| 20260502181048 | 12 | 0 | 0.0 | 0.0 | 0.03 | 1.07 | 1.02 | 92 | 1012.0 |
| 20260502180548 | 12 | 0 | 0.0 | 0.0 | 0.03 | 1.07 | 1.02 | 92 | 1012.2 |
| 20260502164044 | 11 | 34 | 0.0 | 0.0 | 0.13 | 1.02 | 0.97 | 93 | 1013.1 |
| 20260502163547 | 11 | 0 | 0.0 | 0.0 | 0.13 | 0.99 | 0.94 | 93 | 1013.2 |
| 20260502163059 | 11 | 0 | 0.0 | 0.0 | 0.13 | 0.99 | 0.94 | 93 | 1013.3 |
| 20260502162547 | 11 | 0 | 0.0 | 0.0 | 0.10 | 0.97 | 0.91 | 93 | 1013.3 |
| 20260502162046 | 11 | 0 | 0.0 | 12.9 | 0.10 | 0.97 | 0.91 | 93 | 1013.5 |
| 20260502161554 | 11 | 0 | 1.6 | 12.9 | 0.10 | 0.94 | 0.89 | 93 | 1013.4 |
| 20260502161046 | 11 | 0 | 0.0 | 19.3 | 0.10 | 0.91 | 0.86 | 93 | 1013.6 |
| 20260502160546 | 11 | 0 | 0.0 | 19.3 | 0.13 | 0.91 | 0.86 | 93 | 1013.7 |
| 20260502152047 | 12 | 19 | 3.2 | 14.5 | 0.30 | 0.86 | 0.81 | 93 | 1012.8 |
| 20260502151556 | 12 | 0 | 1.6 | 14.5 | 0.28 | 0.84 | 0.79 | 94 | 1012.9 |
| 20260502151047 | 12 | 0 | 1.6 | 14.5 | 0.28 | 0.81 | 0.76 | 93 | 1013.0 |
| 20260502150547 | 12 | 0 | 0.0 | 0.0 | 0.28 | 0.79 | 0.74 | 94 | 1013.2 |
| 20260502150104 | 12 | 0 | 0.0 | 0.0 | 0.28 | 0.76 | 0.71 | 93 | 1013.2 |
| 20260502130546 | 12 | 0 | 0.0 | 0.0 | 0.10 | 0.38 | 0.33 | 93 | 1012.2 |
| 20260502130107 | 11 | 0 | 0.0 | 0.0 | 0.13 | 0.38 | 0.33 | 92 | 1012.1 |
| 20260502123544 | 11 | 0 | 0.0 | 0.0 | 0.15 | 0.33 | 0.28 | 92 | 1011.9 |
| 20260502123100 | 11 | 0 | 0.0 | 0.0 | 0.13 | 0.30 | 0.25 | 92 | 1012.0 |
| 20260502122543 | 11 | 0 | 0.0 | 0.0 | 0.15 | 0.30 | 0.25 | 92 | 1012.0 |
| 20260502122047 | 11 | 0 | 0.0 | 0.0 | 0.15 | 0.30 | 0.25 | 92 | 1011.9 |
| 20260502121558 | 11 | 0 | 0.0 | 0.0 | 0.13 | 0.28 | 0.23 | 92 | 1011.8 |
| 20260502121046 | 11 | 0 | 0.0 | 0.0 | 0.15 | 0.28 | 0.23 | 92 | 1011.7 |
| 20260502120547 | 11 | 0 | 0.0 | 0.0 | 0.15 | 0.28 | 0.23 | 91 | 1011.6 |
| 20260502115546 | 11 | 0 | 0.0 | 9.7 | 0.15 | 0.25 | 0.20 | 91 | 1011.7 |
| 20260502115049 | 11 | 0 | 0.0 | 9.7 | 0.15 | 0.23 | 0.18 | 91 | 1011.7 |
| 20260502114554 | 11 | 0 | 0.0 | 0.0 | 0.15 | 0.23 | 0.18 | 91 | 1011.7 |
| 20260502114047 | 11 | 0 | 0.0 | 12.9 | 0.15 | 0.20 | 0.15 | 91 | 1011.7 |
| 20260502113546 | 11 | 0 | 0.0 | 12.9 | 0.13 | 0.18 | 0.13 | 91 | 1011.7 |
| 20260502113052 | 12 | 0 | 0.0 | 12.9 | 0.13 | 0.18 | 0.13 | 91 | 1011.8 |
| 20260502112545 | 12 | 0 | 0.0 | 6.4 | 0.10 | 0.15 | 0.10 | 91 | 1011.9 |
| 20260502112045 | 12 | 0 | 0.0 | 6.4 | 0.10 | 0.15 | 0.10 | 91 | 1012.0 |
| 20260502111555 | 12 | 0 | 0.0 | 0.0 | 0.10 | 0.15 | 0.10 | 91 | 1011.9 |
| 20260502111042 | 12 | 0 | 0.0 | 0.0 | 0.08 | 0.13 | 0.08 | 90 | 1011.9 |
| 20260502110543 | 12 | 0 | 0.0 | 0.0 | 0.08 | 0.13 | 0.08 | 90 | 1011.9 |
| 20260502110057 | 12 | 0 | 0.0 | 0.0 | 0.05 | 0.10 | 0.05 | 90 | 1011.9 |
| 20260502105547 | 12 | 0 | 0.0 | 0.0 | 0.05 | 0.10 | 0.05 | 90 | 1011.8 |
| 20260502105047 | 12 | 0 | 0.0 | 0.0 | 0.03 | 0.08 | 0.03 | 91 | 1012.0 |
| 20260502104551 | 12 | 0 | 0.0 | 0.0 | 0.03 | 0.08 | 0.03 | 91 | 1012.0 |
| 20260502104046 | 12 | 0 | 0.0 | 0.0 | 0.00 | 0.05 | 0.00 | 91 | 1012.0 |
| 20260502103547 | 12 | 0 | 0.0 | 0.0 | 0.00 | 0.05 | 0.00 | 91 | 1011.9 |
| 20260502103054 | 12 | 0 | 0.0 | 0.0 | 0.00 | 0.05 | 0.00 | 91 | 1011.8 |
| 20260502102547 | 12 | 0 | 0.0 | 0.0 | 0.00 | 0.05 | 0.00 | 91 | 1011.7 |
| 20260502102044 | 12 | 0 | 0.0 | 0.0 | 0.00 | 0.05 | 0.00 | 91 | 1011.7 |
| 20260502101549 | 12 | 0 | 0.0 | 0.0 | 0.00 | 0.05 | 0.00 | 92 | 1011.6 |
| 20260502101048 | 11 | 0 | 0.0 | 0.0 | 0.00 | 0.05 | 0.00 | 92 | 1011.7 |
| 20260502100542 | 11 | 0 | 0.0 | 0.0 | 0.00 | 0.05 | 0.00 | 92 | 1011.7 |
| 20260502091047 | 11 | 0 | 0.0 | 0.0 | 0.00 | 0.05 | 0.00 | 92 | 1011.6 |
| 20260502090542 | 11 | 0 | 0.0 | 0.0 | 0.00 | 0.05 | 0.00 | 92 | 1011.6 |
| 20260502080104 | 11 | 0 | 0.0 | 0.0 | 0.00 | 0.05 | 0.00 | 92 | 1011.4 |
| 20260502071046 | 11 | 0 | 0.0 | 0.0 | 0.00 | 0.05 | 0.00 | 92 | 1011.3 |
| 20260502070546 | 11 | 0 | 0.0 | 0.0 | 0.00 | 0.05 | 0.00 | 92 | 1011.3 |
| 20260502070052 | 11 | 0 | 0.0 | 0.0 | 0.00 | 0.05 | 0.00 | 92 | 1011.3 |
| 20260502065545 | 11 | 0 | 0.0 | 0.0 | 0.00 | 0.05 | 0.00 | 92 | 1011.4 |
| 20260502065043 | 11 | 0 | 0.0 | 0.0 | 0.00 | 0.05 | 0.00 | 92 | 1011.5 |
| 20260502064550 | 11 | 0 | 0.0 | 0.0 | 0.00 | 0.05 | 0.00 | 92 | 1011.4 |
| 20260502064042 | 11 | 0 | 0.0 | 0.0 | 0.00 | 0.05 | 0.00 | 92 | 1011.4 |
| 20260502063542 | 11 | 0 | 0.0 | 0.0 | 0.00 | 0.05 | 0.00 | 92 | 1011.4 |
| 20260502063112 | 11 | 0 | 0.0 | 0.0 | 0.00 | 0.05 | 0.00 | 92 | 1011.5 |
| 20260502062543 | 11 | 0 | 0.0 | 0.0 | 0.00 | 0.05 | 0.00 | 92 | 1011.6 |
| 20260502062046 | 11 | 0 | 0.0 | 0.0 | 0.00 | 0.05 | 0.00 | 92 | 1011.7 |
| 20260502061550 | 11 | 0 | 0.0 | 0.0 | 0.00 | 0.05 | 0.00 | 92 | 1011.7 |
| 20260502061047 | 11 | 0 | 0.0 | 0.0 | 0.00 | 0.05 | 0.00 | 92 | 1011.8 |
| 20260502060546 | 11 | 0 | 0.0 | 0.0 | 0.00 | 0.05 | 0.00 | 92 | 1011.8 |
| 20260502060058 | 11 | 0 | 0.0 | 0.0 | 0.00 | 0.05 | 0.00 | 92 | 1012.0 |
| 20260502055547 | 11 | 0 | 0.0 | 0.0 | 0.00 | 0.05 | 0.00 | 92 | 1011.9 |
| 20260502055046 | 11 | 0 | 0.0 | 0.0 | 0.00 | 0.05 | 0.00 | 92 | 1012.0 |
| 20260502054551 | 11 | 0 | 0.0 | 0.0 | 0.00 | 0.05 | 0.00 | 92 | 1012.0 |
| 20260502054043 | 11 | 0 | 0.0 | 0.0 | 0.00 | 0.05 | 0.00 | 92 | 1012.0 |
| 20260502053542 | 11 | 0 | 0.0 | 0.0 | 0.00 | 0.05 | 0.00 | 92 | 1011.9 |
| 20260502053059 | 11 | 0 | 0.0 | 0.0 | 0.00 | 0.05 | 0.00 | 92 | 1012.0 |
| 20260502052548 | 11 | 0 | 0.0 | 0.0 | 0.00 | 0.05 | 0.00 | 92 | 1012.0 |
| 20260502052048 | 11 | 0 | 0.0 | 0.0 | 0.00 | 0.05 | 0.00 | 92 | 1012.2 |
| 20260502051548 | 11 | 0 | 0.0 | 0.0 | 0.00 | 0.05 | 0.00 | 92 | 1012.2 |
| 20260502051046 | 11 | 0 | 0.0 | 0.0 | 0.00 | 0.05 | 0.00 | 92 | 1012.3 |
| 20260502050547 | 11 | 0 | 0.0 | 0.0 | 0.00 | 0.05 | 0.00 | 92 | 1012.3 |
| 20260502050050 | 11 | 0 | 0.0 | 0.0 | 0.00 | 0.05 | 0.00 | 92 | 1012.3 |
| 20260502045546 | 11 | 0 | 0.0 | 0.0 | 0.00 | 0.05 | 0.00 | 92 | 1012.4 |
| 20260502045046 | 11 | 0 | 0.0 | 0.0 | 0.00 | 0.05 | 0.00 | 92 | 1012.4 |
| 20260502044548 | 11 | 0 | 0.0 | 0.0 | 0.00 | 0.05 | 0.00 | 92 | 1012.4 |
| 20260502044048 | 11 | 0 | 0.0 | 0.0 | 0.00 | 0.05 | 0.00 | 92 | 1012.3 |
| 20260502043545 | 11 | 0 | 0.0 | 0.0 | 0.00 | 0.05 | 0.00 | 92 | 1012.6 |
| 20260502043050 | 11 | 0 | 0.0 | 0.0 | 0.00 | 0.05 | 0.00 | 92 | 1012.8 |
| 20260502042542 | 11 | 0 | 0.0 | 0.0 | 0.00 | 0.05 | 0.00 | 92 | 1012.7 |
| 20260502042047 | 11 | 0 | 0.0 | 0.0 | 0.00 | 0.05 | 0.00 | 92 | 1012.6 |
| 20260502041556 | 11 | 0 | 0.0 | 0.0 | 0.00 | 0.05 | 0.00 | 92 | 1012.4 |
| 20260502041047 | 11 | 0 | 0.0 | 0.0 | 0.00 | 0.05 | 0.00 | 91 | 1012.5 |
| 20260502040547 | 11 | 0 | 0.0 | 0.0 | 0.00 | 0.05 | 0.00 | 91 | 1012.6 |
| 20260502035547 | 11 | 0 | 0.0 | 0.0 | 0.00 | 0.05 | 0.05 | 91 | 1012.5 |
| 20260502035046 | 11 | 0 | 0.0 | 0.0 | 0.00 | 0.05 | 0.05 | 91 | 1012.5 |
| 20260502034552 | 11 | 0 | 0.0 | 0.0 | 0.00 | 0.05 | 0.05 | 91 | 1012.6 |
| 20260502034046 | 11 | 0 | 0.0 | 0.0 | 0.00 | 0.05 | 0.05 | 91 | 1012.8 |
| 20260502033545 | 11 | 0 | 0.0 | 0.0 | 0.00 | 0.05 | 0.05 | 91 | 1012.9 |
| 20260502033051 | 11 | 0 | 0.0 | 0.0 | 0.00 | 0.05 | 0.05 | 91 | 1012.8 |
| 20260502032545 | 11 | 0 | 0.0 | 0.0 | 0.00 | 0.05 | 0.05 | 91 | 1012.9 |
| 20260502032044 | 10 | 0 | 0.0 | 0.0 | 0.00 | 0.05 | 0.05 | 91 | 1012.9 |
| 20260502031552 | 10 | 0 | 0.0 | 0.0 | 0.00 | 0.05 | 0.05 | 91 | 1013.0 |
| 20260502031042 | 10 | 0 | 0.0 | 0.0 | 0.00 | 0.05 | 0.05 | 91 | 1013.1 |
| 20260502030545 | 10 | 0 | 0.0 | 0.0 | 0.00 | 0.05 | 0.05 | 90 | 1013.1 |
| 20260502030052 | 10 | 0 | 0.0 | 0.0 | 0.00 | 0.05 | 0.05 | 90 | 1013.2 |
| 20260502025546 | 10 | 0 | 0.0 | 0.0 | 0.00 | 0.05 | 0.05 | 90 | 1013.1 |
| 20260502025049 | 10 | 0 | 0.0 | 0.0 | 0.00 | 0.05 | 0.05 | 90 | 1013.3 |
| 20260502024549 | 10 | 0 | 0.0 | 0.0 | 0.00 | 0.05 | 0.05 | 90 | 1013.2 |
| 20260502024044 | 10 | 0 | 0.0 | 0.0 | 0.00 | 0.05 | 0.05 | 90 | 1013.3 |
| 20260502023544 | 10 | 0 | 0.0 | 0.0 | 0.00 | 0.05 | 0.05 | 90 | 1013.2 |
| 20260502023054 | 10 | 0 | 0.0 | 0.0 | 0.00 | 0.05 | 0.05 | 89 | 1013.2 |
| 20260502022544 | 10 | 0 | 0.0 | 0.0 | 0.00 | 0.05 | 0.05 | 89 | 1013.1 |
| 20260502022046 | 11 | 0 | 0.0 | 0.0 | 0.00 | 0.05 | 0.05 | 89 | 1013.1 |
| 20260502021554 | 11 | 0 | 0.0 | 0.0 | 0.00 | 0.05 | 0.05 | 89 | 1013.1 |
| 20260502021044 | 11 | 0 | 0.0 | 0.0 | 0.00 | 0.05 | 0.05 | 89 | 1013.2 |
| 20260502020544 | 11 | 0 | 0.0 | 0.0 | 0.00 | 0.05 | 0.05 | 89 | 1013.2 |
| 20260502020052 | 11 | 0 | 0.0 | 0.0 | 0.00 | 0.05 | 0.05 | 88 | 1013.1 |
| 20260502015544 | 11 | 0 | 0.0 | 0.0 | 0.00 | 0.05 | 0.05 | 88 | 1013.2 |
| 20260502015045 | 11 | 0 | 0.0 | 0.0 | 0.00 | 0.05 | 0.05 | 88 | 1013.3 |
| 20260502014551 | 11 | 0 | 0.0 | 0.0 | 0.00 | 0.05 | 0.05 | 87 | 1013.2 |
| 20260502014044 | 11 | 0 | 0.0 | 0.0 | 0.00 | 0.05 | 0.05 | 87 | 1013.3 |
| 20260502013548 | 11 | 0 | 0.0 | 0.0 | 0.00 | 0.05 | 0.05 | 87 | 1013.2 |
| 20260502013050 | 11 | 0 | 0.0 | 0.0 | 0.00 | 0.05 | 0.05 | 86 | 1013.3 |
| 20260502012544 | 11 | 0 | 0.0 | 0.0 | 0.00 | 0.05 | 0.05 | 86 | 1013.4 |
| 20260502012045 | 11 | 0 | 0.0 | 0.0 | 0.00 | 0.05 | 0.05 | 86 | 1013.2 |
| 20260502011551 | 11 | 0 | 0.0 | 0.0 | 0.00 | 0.05 | 0.05 | 85 | 1013.1 |
| 20260502011046 | 11 | 0 | 0.0 | 0.0 | 0.00 | 0.05 | 0.05 | 85 | 1012.9 |
| 20260502010545 | 12 | 0 | 0.0 | 0.0 | 0.00 | 0.05 | 0.05 | 85 | 1012.9 |